INTELSAT 39 (IS-39)

Last updated on Sat Apr 13 2024 01:02:39 GMT+0100 (British Summer Time)

1 44476U 19049B 24103.53308071 .00000025 00000+0 00000+0 0 9990 2 44476 0.0144 216.0272 0000720 312.2608 286.7800 1.00270824 17156
UTC large
Height (km)
Speed (km/s)
/
Latitude / Longitude
Inclination (degrees)
Orbital Period (minutes)
Azimuth
Elevation
Range (km)
Doppler Factor

Next 0 passes for location: London (51.5072 / 0.1276)

Sorry there are no passes over London.